Total_Precipitation_Accumulation
1.95 1.69 2.78 3.09 2.77 2.45 2.32 2.26 2.21 2.21 2.22 2.22 2.03 1.78 1.60 1.50 1.37 1.25 1.11 1.06 1.15 1.14 1.09 1.06 1.10 1.06 1.02 1.04 1.04 1.08 1.13 1.22 1.28 1.29 1.34 1.45 1.39 1.39 1.68 2.07 2.28 2.63 2.23
1.56 1.64 2.77 3.04 2.66 2.23 2.07 2.14 2.29 2.24 2.19 2.06 1.99 1.83 1.70 1.50 1.34 1.24 1.08 1.00 1.01 1.01 0.93 1.02 1.15 1.13 1.09 1.15 1.20 1.24 1.25 1.23 1.32 1.40 1.62 1.70 1.52 1.50 1.61 2.01 2.14 2.45 2.23
1.55 1.63 2.33 2.94 2.62 2.26 2.08 2.16 2.33 2.21 2.20 2.05 1.99 1.84 1.70 1.44 1.32 1.25 1.13 1.07 1.08 0.99 0.91 1.00 1.19 1.16 1.16 1.20 1.23 1.34 1.34 1.34 1.41 1.57 2.06 2.73 2.02 1.67 1.71 1.88 2.00 1.88 2.03
1.42 1.48 1.99 2.93 2.59 2.42 2.31 2.35 2.31 2.24 2.29 2.11 1.95 1.81 1.65 1.48 1.46 1.42 1.48 1.48 1.33 1.12 1.01 1.03 1.24 1.16 1.08 1.17 1.28 1.29 1.30 1.40 1.58 1.67 2.06 2.67 2.50 1.88 1.88 2.00 2.11 1.90 1.95
1.36 1.49 2.28 2.97 2.63 2.46 2.43 2.40 2.28 2.35 2.39 2.21 1.95 1.73 1.53 1.57 1.79 1.81 1.71 1.60 1.38 1.16 1.04 1.02 1.14 1.15 1.08 1.07 1.18 1.23 1.30 1.45 1.64 1.55 1.92 2.57 2.89 2.42 1.98 1.98 2.05 1.94 1.96
1.57 1.59 2.30 2.96 2.76 2.53 2.45 2.38 2.30 2.35 2.46 2.38 2.05 1.76 1.61 1.64 1.72 1.72 1.66 1.55 1.33 1.18 1.02 1.07 1.16 1.14 1.14 1.09 1.13 1.20 1.28 1.41 1.34 1.49 2.01 2.43 2.79 2.42 1.92 1.86 2.03 2.04 2.07
1.52 1.58 2.02 2.69 2.64 2.45 2.36 2.33 2.43 2.44 2.42 2.42 2.18 1.88 1.78 1.74 1.68 1.72 1.64 1.54 1.27 1.14 1.03 1.13 1.18 1.15 1.09 1.10 1.08 1.08 1.20 1.12 1.02 1.41 1.87 2.32 2.40 2.30 2.02 2.03 2.20 2.16 2.28
1.52 1.49 1.73 2.32 2.53 2.43 2.44 2.36 2.42 2.47 2.43 2.33 2.00 1.84 1.72 1.73 1.74 1.71 1.67 1.58 1.35 1.27 1.20 1.14 1.10 1.10 1.08 1.10 1.09 1.13 1.16 0.93 0.80 1.12 1.55 2.18 2.49 2.38 2.13 2.07 2.25 2.33 2.45
1.73 1.71 1.79 2.06 2.29 2.65 2.73 2.57 2.55 2.56 2.45 2.27 1.93 1.82 1.71 1.65 1.57 1.56 1.56 1.46 1.34 1.32 1.23 1.12 1.03 1.00 1.05 1.08 1.10 1.15 1.11 0.90 0.84 1.12 1.16 1.83 2.33 2.35 2.15 2.11 2.20 2.32 2.48
1.80 1.76 1.67 1.80 1.95 2.23 2.45 2.68 2.71 2.62 2.49 2.32 1.98 1.85 1.76 1.66 1.54 1.48 1.33 1.33 1.30 1.31 1.36 1.22 1.12 1.09 1.09 1.16 1.18 1.14 1.07 0.86 0.85 0.94 1.21 1.60 2.34 2.40 2.18 2.18 2.20 2.23 2.34
1.66 1.57 1.48 1.54 1.69 1.91 2.16 2.40 2.63 2.54 2.45 2.27 1.96 1.87 1.84 1.63 1.40 1.35 1.23 1.47 1.39 1.37 1.41 1.38 1.38 1.34 1.20 1.15 1.19 1.07 0.84 0.81 1.01 1.11 1.32 1.85 2.53 2.59 2.40 2.28 2.28 2.23 2.20
1.62 1.47 1.32 1.36 1.50 1.63 1.76 2.26 2.34 2.03 1.90 1.74 1.87 1.80 1.72 1.67 1.49 1.11 1.20 1.49 1.61 1.57 1.41 1.36 1.45 1.24 0.96 0.84 0.90 0.83 0.69 0.80 0.98 1.09 1.33 2.18 2.69 2.70 2.38 2.24 2.36 2.37 2.19
1.41 1.32 1.23 1.23 1.22 1.22 1.37 1.70 1.94 1.97 1.90 1.69 1.60 1.55 1.56 1.47 1.26 1.06 1.15 1.21 1.18 1.14 1.03 1.05 1.01 0.84 0.77 0.83 0.83 0.70 0.65 0.75 0.90 1.06 1.44 2.29 2.81 2.79 2.40 2.24 2.28 2.28 2.17
1.22 1.20 1.14 1.05 1.02 0.98 1.05 1.12 1.24 1.50 1.59 1.55 1.35 1.20 1.24 1.31 1.22 1.05 1.06 1.04 1.01 1.00 1.10 1.10 1.07 0.98 0.94 0.93 0.86 0.85 0.86 0.90 0.96 1.07 1.46 2.17 2.93 3.00 2.84 2.75 2.55 2.43 2.27
1.16 1.15 1.07 0.93 0.92 0.93 0.99 1.03 0.98 1.20 1.38 1.42 1.35 1.17 1.10 1.13 1.16 1.10 0.97 0.98 0.92 0.92 0.99 1.03 1.04 1.09 1.16 1.11 1.05 1.05 1.09 1.06 0.99 0.99 1.26 1.85 2.76 3.42 3.60 3.49 2.96 2.68 2.52
1.02 1.10 1.03 0.97 1.00 0.97 0.91 0.94 0.95 1.00 1.11 1.12 1.23 1.20 1.12 1.06 1.05 1.07 1.04 1.06 1.05 1.01 0.99 0.98 0.97 1.11 1.15 1.18 1.15 1.09 1.06 0.96 0.97 1.11 1.32 1.50 1.75 2.37 3.26 3.55 3.33 3.08 2.88
0.93 0.92 0.87 0.87 0.94 0.93 0.92 0.92 0.94 1.05 1.08 1.10 1.12 1.07 1.13 1.05 1.02 1.05 1.06 1.08 1.07 1.08 1.05 1.06 1.09 1.17 1.21 1.29 1.32 1.15 1.08 1.02 0.99 1.07 1.20 1.31 1.15 1.27 2.01 2.86 3.26 3.14 3.05
0.82 0.81 0.81 0.72 0.82 0.94 1.02 1.06 1.15 1.20 1.21 1.25 1.15 1.06 1.05 1.00 0.99 1.10 1.11 1.13 1.19 1.11 1.09 1.19 1.25 1.34 1.38 1.43 1.43 1.24 1.07 1.17 1.08 1.05 1.18 1.20 1.17 1.09 1.32 1.72 2.18 2.53 2.96
0.81 0.83 0.86 0.81 0.86 0.97 1.03 1.16 1.26 1.33 1.40 1.49 1.40 1.35 1.30 1.18 1.16 1.28 1.34 1.34 1.35 1.36 1.30 1.22 1.26 1.38 1.52 1.52 1.35 1.26 1.18 1.21 1.21 1.15 1.31 1.28 1.25 1.23 1.29 1.22 1.31 1.63 2.25
0.87 0.88 0.93 1.00 1.03 1.15 1.30 1.51 1.72 1.83 1.97 2.08 1.98 1.86 1.67 1.45 1.39 1.56 1.61 1.50 1.53 1.65 1.71 1.53 1.58 1.50 1.47 1.56 1.38 1.33 1.32 1.27 1.25 1.31 1.34 1.42 1.52 1.35 1.34 1.27 1.20 1.07 1.41
0.87 0.87 0.87 0.92 1.02 1.13 1.35 1.66 2.17 2.43 2.52 2.40 2.34 2.23 2.00 1.75 1.73 1.93 1.98 1.95 1.94 1.96 1.93 1.85 2.01 1.93 1.64 1.58 1.82 1.80 1.62 1.42 1.34 1.33 1.37 1.58 1.67 1.57 1.59 1.50 1.39 1.25 1.14
0.73 0.76 0.91 0.94 0.99 1.09 1.37 1.68 2.06 2.49 2.55 2.50 2.40 2.29 2.17 2.02 1.96 2.00 2.24 2.37 2.34 2.51 2.52 2.29 2.42 2.45 2.05 1.80 2.12 2.47 2.17 1.92 1.47 1.36 1.47 1.52 1.60 1.68 1.73 1.57 1.42 1.32 1.29
0.64 0.61 0.73 0.89 1.06 1.33 1.64 1.94 2.13 2.44 2.54 2.54 2.42 2.35 2.35 2.28 2.15 2.19 2.30 2.47 2.48 2.57 2.75 2.80 2.71 2.83 2.64 2.22 2.10 2.47 2.40 2.21 1.98 1.60 1.50 1.57 1.70 1.75 1.77 1.74 1.56 1.30 1.29
0.55 0.52 0.60 0.76 1.04 1.43 1.80 2.03 2.27 2.64 2.73 2.60 2.54 2.46 2.42 2.42 2.40 2.48 2.49 2.57 2.60 2.61 2.72 2.84 2.78 2.94 3.07 2.68 2.34 2.12 1.97 1.98 2.14 1.94 1.67 1.59 1.72 1.72 1.72 1.74 1.76 1.59 1.41
0.56 0.57 0.63 0.82 1.11 1.44 1.69 1.96 2.30 2.50 2.62 2.69 2.59 2.55 2.51 2.51 2.53 2.57 2.62 2.75 2.75 2.73 2.68 2.89 2.96 3.06 3.01 2.95 2.81 2.61 2.45 2.22 1.87 2.01 2.01 1.82 1.70 1.57 1.62 1.74 1.90 1.84 1.65
0.60 0.67 0.79 0.97 1.15 1.42 1.66 1.93 2.11 2.29 2.44 2.53 2.57 2.52 2.48 2.49 2.58 2.46 2.38 2.54 2.61 2.65 2.62 2.79 2.93 3.06 3.06 3.09 3.02 2.72 2.70 2.60 2.24 2.21 2.05 1.87 1.88 1.67 1.57 1.65 1.70 1.70 1.67